This is the latest recevied weather packets stored in our database for station/object K4CRS-13. If no packets are shown the sender has not sent any weather packets the latest 10 day(s).
| Time | Temp. | Humidity | Pressure | Rain* | Wind** | Luminosity | Snow |
|---|---|---|---|---|---|---|---|
| 1777861463 | 10° C | 91% | 1053 hPa | 0 mm | - | 0 W/m² | - |
| 1777861160 | 10.56° C | 91% | 1052.8 hPa | 0 mm | - | 0 W/m² | - |
| 1777860857 | 10.56° C | 90% | 1052.6 hPa | 0 mm | - | 0 W/m² | - |
| 1777860555 | 10.56° C | 89% | 1052.8 hPa | 0 mm | - | 0 W/m² | - |
| 1777860251 | 11.11° C | 88% | 1052.6 hPa | 0 mm | - | 0 W/m² | - |
| 1777859948 | 11.11° C | 88% | 1052.4 hPa | 0 mm | - | 0 W/m² | - |
| 1777859643 | 11.11° C | 87% | 1052.5 hPa | 0 mm | - | 0 W/m² | - |
| 1777859340 | 11.11° C | 86% | 1052.5 hPa | 0 mm | - | 0 W/m² | - |
| 1777859035 | 11.11° C | 84% | 1052.3 hPa | 0 mm | - | 0 W/m² | - |
| 1777858733 | 11.67° C | 83% | 1052.2 hPa | 0 mm | - | 0 W/m² | - |
| 1777858431 | 11.67° C | 82% | 1052.1 hPa | 0 mm | - | 0 W/m² | - |
| 1777858127 | 12.22° C | 81% | 1052.2 hPa | 0 mm | - | 0 W/m² | - |
| 1777857825 | 12.22° C | 80% | 1051.9 hPa | 0 mm | - | 0 W/m² | - |
| 1777857523 | 12.78° C | 80% | 1052.2 hPa | 0 mm | - | 0 W/m² | - |
| 1777857219 | 12.78° C | 78% | 1052.2 hPa | 0 mm | - | 0 W/m² | - |
| 1777856915 | 13.33° C | 77% | 1052 hPa | 0 mm | - | 0 W/m² | - |
| 1777856610 | 13.89° C | 76% | 1051.9 hPa | 0 mm | - | 0 W/m² | - |
| 1777856307 | 14.44° C | 74% | 1052 hPa | 0 mm | - | 0 W/m² | - |
| 1777856004 | 14.44° C | 71% | 1052 hPa | 0 mm | - | 0 W/m² | - |
| 1777855702 | 15° C | 68% | 1052.1 hPa | 0 mm | - | 1 W/m² | - |
| 1777855399 | 15.56° C | 66% | 1051.9 hPa | 0 mm | - | 2 W/m² | - |
| 1777855095 | 16.11° C | 63% | 1051.9 hPa | 0 mm | - | 3 W/m² | - |
| 1777854793 | 16.67° C | 62% | 1051.9 hPa | 0 mm | - | 6 W/m² | - |
| 1777854489 | 17.78° C | 59% | 1051.8 hPa | 0 mm | - | 8 W/m² | - |
| 1777854186 | 18.89° C | 54% | 1051.9 hPa | 0 mm | - | 12 W/m² | - |
* Rain latest hour (hover to see other rain measurements)
** Current wind speed in m/s (hover to see current wind gust speed)